CW7911 Weather Reports


time (UTC)temp
C
wind
direction
speed
KPH
gust
KPH
rain 1hr
cm
rain 24hr
cm
rain mn
cm
humidity
%
barometer
mb
20260504045624 0 284 0.0 0.0 0.00 0.00 0.00 85 1006.3
20260504045118 0 284 0.0 0.0 0.00 0.00 0.00 85 1006.2
20260504044616 0 284 0.0 0.0 0.00 0.00 0.00 85 1006.0
20260504044113 0 284 0.0 0.0 0.00 0.00 0.00 84 1006.1
20260504043610 0 284 0.0 0.0 0.00 0.00 0.00 84 1006.1
20260504043107 0 284 0.0 0.0 0.00 0.00 0.00 84 1006.1
20260504042604 0 284 0.0 0.0 0.00 0.00 0.00 83 1006.1
20260504042101 0 284 0.0 0.0 0.00 0.00 0.00 83 1005.9
20260504041557 0 284 0.0 0.0 0.00 0.00 0.00 82 1006.0
20260504041053 0 284 0.0 0.0 0.00 0.00 0.00 82 1006.0
20260504040551 0 284 0.0 0.0 0.00 0.00 0.00 82 1006.0
20260504040047 0 284 0.0 0.0 0.00 0.00 0.00 82 1006.1
20260504035544 0 284 0.0 0.0 0.00 0.00 0.00 82 1006.0
20260504035040 0 284 0.0 0.0 0.00 0.00 0.00 81 1006.0
20260504034539 1 284 0.0 0.0 0.00 0.00 0.00 80 1005.8
20260504034035 1 284 0.0 0.0 0.00 0.00 0.00 79 1005.5
20260504033533 1 284 0.0 0.0 0.00 0.00 0.00 79 1005.8
20260504033030 1 284 0.0 0.0 0.00 0.00 0.00 79 1005.7
20260504032527 1 284 0.0 0.0 0.00 0.00 0.00 79 1005.8
20260504032024 1 284 0.0 0.0 0.00 0.00 0.00 79 1005.8
20260504031521 1 284 0.0 0.0 0.00 0.00 0.00 78 1005.8
20260504031017 1 284 0.0 0.0 0.00 0.00 0.00 79 1005.9
20260504030515 1 284 0.0 0.0 0.00 0.00 0.00 79 1005.7
20260504030010 1 284 0.0 0.0 0.00 0.00 0.00 80 1005.6
20260504025508 1 284 0.0 0.0 0.00 0.00 0.00 81 1005.7
20260504025005 1 284 0.0 0.0 0.00 0.00 0.00 80 1005.8
20260504024502 0 284 0.0 0.0 0.00 0.00 0.00 81 1005.7
20260504023959 0 284 0.0 0.0 0.00 0.00 0.00 81 1005.8
20260504023455 0 284 0.0 0.0 0.00 0.00 0.00 81 1005.9
20260504022950 0 284 0.0 0.0 0.00 0.00 0.00 81 1005.8
20260504022447 0 284 0.0 0.0 0.00 0.00 0.00 82 1005.9
20260504021944 0 284 0.0 0.0 0.00 0.00 0.00 82 1005.9
20260504021441 0 284 0.0 0.0 0.00 0.00 0.00 82 1005.8
20260504020938 1 284 0.0 0.0 0.00 0.00 0.00 82 1006.0
20260504020434 1 284 0.0 0.0 0.00 0.00 0.00 81 1005.7
20260504015931 1 284 0.0 0.0 0.00 0.00 0.00 80 1005.9
20260504015427 1 284 0.0 0.0 0.00 0.00 0.00 80 1005.8
20260504014923 1 284 0.0 0.0 0.00 0.00 0.00 79 1005.7
20260504014420 1 284 0.0 0.0 0.00 0.00 0.00 79 1005.7
20260504013916 1 284 0.0 0.0 0.00 0.00 0.00 79 1005.8
20260504013415 1 284 0.0 0.0 0.00 0.00 0.00 78 1005.7
20260504012911 1 284 0.0 0.0 0.00 0.00 0.00 77 1005.7
20260504012409 1 284 0.0 0.0 0.00 0.00 0.00 77 1005.7
20260504011906 2 284 0.0 0.0 0.00 0.00 0.00 77 1005.6
20260504011403 2 284 0.0 0.0 0.00 0.00 0.00 76 1005.5
20260504010859 2 284 0.0 0.0 0.00 0.00 0.00 76 1005.6
20260504010354 2 284 0.0 0.0 0.00 0.00 0.00 75 1005.7
20260504005845 2 284 0.0 0.0 0.00 0.00 0.00 75 1005.3
20260504005342 2 284 0.0 0.0 0.00 0.00 0.00 74 1005.3
20260504004840 2 284 0.0 0.0 0.00 0.00 0.00 74 1005.4
20260504004337 2 284 0.0 0.0 0.00 0.00 0.00 73 1005.2
20260504003833 3 284 0.0 0.0 0.00 0.00 0.00 72 1005.1
20260504003330 3 284 0.0 0.0 0.00 0.00 0.00 71 1005.2
20260504002827 3 284 0.0 0.0 0.00 0.00 0.00 70 1005.1
20260504002324 3 284 0.0 0.0 0.00 0.00 0.00 68 1005.1
20260504001822 4 284 0.0 0.0 0.00 0.00 0.00 68 1005.1
20260504001319 4 284 0.0 0.0 0.00 0.00 0.00 67 1005.0
20260504000815 5 284 0.0 0.0 0.00 0.00 0.00 64 1004.7
20260504000312 5 284 0.0 0.0 0.00 0.00 0.00 62 1004.7
20260503235810 6 284 0.0 0.0 0.00 0.00 0.00 58 1004.6
20260503235308 6 284 0.0 0.0 0.00 0.00 0.00 54 1004.7
20260503234805 6 284 0.0 1.6 0.00 0.00 0.00 54 1004.5
20260503234303 7 284 0.0 0.0 0.00 0.00 0.00 56 1004.5
20260503233800 7 284 0.0 0.0 0.00 0.00 0.00 50 1004.6
20260503233255 7 284 0.0 1.6 0.00 0.00 0.00 48 1004.5
20260503232753 7 284 0.0 6.4 0.00 0.00 0.00 46 1004.0
20260503232250 7 284 1.6 4.8 0.00 0.00 0.00 45 1004.1
20260503231748 7 284 1.6 3.2 0.00 0.00 0.00 46 1004.1
20260503231245 7 284 0.0 0.0 0.00 0.00 0.00 45 1004.2
20260503230740 8 284 3.2 6.4 0.00 0.00 0.00 44 1004.0
20260503230237 8 284 0.0 4.8 0.00 0.00 0.00 45 1003.9
20260503225730 8 284 3.2 4.8 0.00 0.00 0.00 43 1003.9
20260503225229 8 284 4.8 6.4 0.00 0.00 0.00 44 1003.7
20260503224727 8 284 0.0 4.8 0.00 0.00 0.00 44 1003.7
20260503224224 8 284 0.0 0.0 0.00 0.00 0.00 46 1003.6
20260503223722 8 284 1.6 6.4 0.00 0.00 0.00 44 1003.7
20260503223219 8 284 0.0 1.6 0.00 0.00 0.00 43 1003.9
20260503222715 8 284 0.0 6.4 0.00 0.00 0.00 43 1003.6
20260503222214 8 284 3.2 11.3 0.00 0.00 0.00 42 1003.4
20260503221712 9 284 3.2 9.7 0.00 0.00 0.00 42 1003.5
20260503221209 9 284 1.6 9.7 0.00 0.00 0.00 43 1003.4
20260503220705 9 284 1.6 9.7 0.00 0.00 0.00 43 1003.4
20260503220202 9 284 1.6 9.7 0.00 0.00 0.00 43 1003.3
20260503215659 9 284 3.2 12.9 0.00 0.00 0.00 40 1003.1
20260503215156 9 284 6.4 9.7 0.00 0.00 0.00 42 1003.1
20260503214654 9 284 1.6 11.3 0.00 0.00 0.00 40 1003.1
20260503214149 9 284 8.0 12.9 0.00 0.00 0.00 40 1003.2
20260503213644 9 284 0.0 3.2 0.00 0.00 0.00 44 1003.0
20260503213140 9 284 0.0 4.8 0.00 0.00 0.00 41 1003.0
20260503212637 9 284 4.8 6.4 0.00 0.00 0.00 42 1002.8
20260503212135 10 284 1.6 6.4 0.00 0.00 0.00 42 1002.9
20260503211632 9 284 0.0 3.2 0.00 0.00 0.00 44 1002.8
20260503211127 9 284 0.0 6.4 0.00 0.00 0.00 43 1003.1
20260503210624 9 284 0.0 6.4 0.00 0.00 0.00 44 1002.7
20260503210121 10 284 4.8 9.7 0.00 0.00 0.00 44 1002.9
20260503205616 9 284 0.0 3.2 0.00 0.00 0.00 47 1002.6
20260503205113 10 284 1.6 3.2 0.00 0.00 0.00 46 1002.8
20260503204610 10 284 0.0 4.8 0.00 0.00 0.00 45 1002.6
20260503204108 10 284 3.2 9.7 0.00 0.00 0.00 44 1002.6
20260503203604 10 284 0.0 4.8 0.00 0.00 0.00 45 1002.4
20260503203102 10 284 3.2 6.4 0.00 0.00 0.00 43 1002.9
20260503202559 10 284 0.0 0.0 0.00 0.00 0.00 43 1002.7
20260503202057 10 284 0.0 1.6 0.00 0.00 0.00 44 1002.7
20260503201555 10 284 0.0 0.0 0.00 0.00 0.00 46 1002.8
20260503201051 10 284 1.6 6.4 0.00 0.00 0.00 45 1002.7
20260503200547 10 284 0.0 6.4 0.00 0.00 0.00 44 1002.7
20260503200044 10 284 1.6 1.6 0.00 0.00 0.00 44 1002.6
20260503195541 10 284 1.6 6.4 0.00 0.00 0.00 44 1002.6
20260503195038 10 284 0.0 11.3 0.00 0.00 0.00 43 1002.8
20260503194536 10 284 1.6 3.2 0.00 0.00 0.00 43 1002.6
20260503194035 10 284 1.6 6.4 0.00 0.00 0.00 44 1002.9
20260503193533 10 284 3.2 4.8 0.00 0.00 0.00 44 1002.9
20260503193028 10 284 3.2 4.8 0.00 0.00 0.00 41 1002.8
20260503192524 11 284 6.4 9.7 0.00 0.00 0.00 41 1003.0
20260503192020 10 284 1.6 4.8 0.00 0.00 0.00 42 1002.7
20260503191517 10 284 3.2 11.3 0.00 0.00 0.00 40 1003.1
20260503191014 10 284 3.2 3.2 0.00 0.00 0.00 43 1003.1
20260503190510 10 284 3.2 9.7 0.00 0.00 0.00 45 1002.7
20260503190008 10 284 0.0 4.8 0.00 0.00 0.00 47 1002.8
20260503185503 10 284 4.8 9.7 0.00 0.00 0.00 45 1002.9
20260503184958 10 284 4.8 16.1 0.00 0.00 0.00 46 1002.9
20260503184455 10 284 3.2 4.8 0.00 0.00 0.00 47 1002.8
20260503183951 11 284 6.4 9.7 0.00 0.00 0.00 43 1002.9
20260503183448 10 284 1.6 6.4 0.00 0.00 0.00 48 1002.8
20260503182944 11 284 6.4 9.7 0.00 0.00 0.00 46 1002.9
20260503182443 11 284 3.2 9.7 0.00 0.00 0.00 49 1002.8
20260503181941 10 284 3.2 9.7 0.00 0.00 0.00 48 1002.7
20260503181438 10 284 3.2 11.3 0.00 0.00 0.00 47 1002.6
20260503180933 10 284 6.4 16.1 0.00 0.00 0.00 48 1002.6
20260503180432 10 284 6.4 14.5 0.00 0.00 0.00 48 1002.8
20260503175928 10 284 4.8 9.7 0.00 0.00 0.00 50 1002.5
20260503175427 10 284 3.2 6.4 0.00 0.00 0.00 52 1003.0
20260503174922 10 284 6.4 6.4 0.00 0.00 0.00 49 1002.8
20260503174420 10 284 4.8 9.7 0.00 0.00 0.00 53 1002.7
20260503173914 9 284 3.2 4.8 0.00 0.00 0.00 54 1002.6
20260503173411 9 284 3.2 14.5 0.00 0.00 0.00 55 1002.7
20260503172908 10 284 9.7 12.9 0.00 0.00 0.00 52 1002.8
20260503172405 9 284 6.4 12.9 0.00 0.00 0.00 56 1002.7
20260503171901 8 284 6.4 9.7 0.00 0.00 0.00 56 1002.6
20260503171358 9 284 3.2 4.8 0.00 0.00 0.00 56 1002.9
20260503170855 9 284 1.6 12.9 0.00 0.00 0.00 57 1002.6
20260503170352 8 250 3.2 6.4 0.00 0.00 0.00 58 1002.9
20260503150744 6 250 1.6 3.2 0.00 0.00 0.00 80 1003.9
20260503150240 6 250 4.8 6.4 0.00 0.00 0.00 81 1003.9
20260503140204 5 250 1.6 3.2 0.00 0.00 0.00 84 1004.4
20260503131134 5 250 0.0 3.2 0.00 0.00 0.00 87 1004.9
20260503130632 5 250 1.6 3.2 0.00 0.00 0.00 88 1004.8
20260503130129 5 250 0.0 4.8 0.00 0.00 0.00 87 1004.8
20260503110522 4 250 0.0 3.2 0.00 0.00 0.00 95 1005.4
20260503090409 3 250 0.0 0.0 0.00 0.00 0.00 95 1006.0
20260503081335 3 250 0.0 0.0 0.00 0.00 0.00 95 1006.4
20260503080832 3 250 0.0 0.0 0.00 0.00 0.00 95 1006.3
20260503080329 3 250 0.0 0.0 0.00 0.00 0.00 95 1006.4
20260503072759 4 250 0.0 0.0 0.00 0.00 0.00 95 1006.5
20260503072256 4 250 0.0 0.0 0.00 0.00 0.00 95 1006.2
20260503071752 4 250 0.0 0.0 0.00 0.00 0.00 95 1006.3
20260503071250 4 250 0.0 0.0 0.00 0.00 0.00 95 1006.4
20260503070746 4 250 0.0 1.6 0.00 0.00 0.00 95 1006.7
20260503070244 4 250 0.0 0.0 0.00 0.00 0.00 95 1006.7
20260503060209 5 250 0.0 0.0 0.00 0.00 0.00 95 1007.4
20260503054655 5 250 0.0 0.0 0.00 0.00 0.00 95 1007.7
20260503054153 5 250 0.0 0.0 0.00 0.00 0.00 95 1007.5
20260503053651 5 250 0.0 0.0 0.00 0.00 0.00 95 1007.9
20260503053149 5 250 0.0 0.0 0.00 0.00 0.00 95 1007.6
20260503052645 5 250 0.0 0.0 0.00 0.00 0.00 95 1007.6
20260503052141 5 250 0.0 0.0 0.00 0.00 0.00 95 1007.9
20260503051637 5 250 0.0 0.0 0.00 0.00 0.00 95 1008.1
20260503051135 5 250 0.0 0.0 0.00 0.00 0.00 95 1008.2
20260503050631 5 250 0.0 0.0 0.00 0.00 0.00 95 1008.2
20260503050128 5 250 0.0 1.6 0.00 0.00 0.00 95 1008.2